Skip Page Navigation
NASA JPL Caltech
NASA Logo - Jet Propulsion Laboratory + View the NASA Portal
+ Center for Near-Earth Object Studies
JPL Home Earth Solar System Stars & Galaxies Technology
JPL Solar System Dynamics
BODIES ORBITS EPHEMERIDES TOOLS PHYSICAL DATA DISCOVERY FAQ SITE MAP
JPL Small-Body Database Browser
Search: [ help ]  
4730 Xingmingzhou (1980 XZ)
Classification: Main-belt Asteroid          SPK-ID: 2004730
Ephemeris | Orbit Diagram | Orbital Elements | Mission Design | Physical Parameters | Discovery Circumstances | Close-Approach Data ]

[ show orbit diagram ]
Orbital Elements at Epoch 2459200.5 (2020-Dec-17.0) TDB
Reference: JPL 41 (heliocentric ecliptic J2000)
 Element Value Uncertainty (1-sigma)   Units 
e .04413242489944293 2.1745e-08  
a 3.124801803548444 1.7265e-08 au
q 2.986896722627698 7.352e-08 au
i 11.98485145921773 6.0337e-07 deg
node 80.57669732093225 4.9181e-06 deg
peri 206.1861590801185 1.9448e-05 deg
M 231.6351373844715 2.2498e-05 deg
tp 2459919.908891810748
(2022-Dec-06.40889181)
0.0001267 TDB
period 2017.586400007095
5.52
1.6721e-05
4.578e-08
d
yr
n .1784310203512147 1.4788e-09 deg/d
Q 3.26270688446919 1.8027e-08 au
  Orbit Determination Parameters
   # obs. used (total)      2491  
   data-arc span      32549 days (89.11 yr)  
   first obs. used      1932-01-28  
   last obs. used      2021-03-10  
   planetary ephem.      DE441  
   SB-pert. ephem.      SB441-N16  
   condition code      0  
   norm. resid. RMS      .42153  
   source      ORB  
   producer      Otto Matic  
   solution date      2021-Apr-12 16:41:42  

Additional Information
 Earth MOID = 1.97305 au 
 Jupiter MOID = 1.82648 au 
 T_jup = 3.180 
[ show covariance matrix ]

Ephemeris | Orbit Diagram | Orbital Elements | Mission Design | Physical Parameters | Discovery Circumstances | Close-Approach Data ]

Physical Parameter Table
Parameter Symbol Value Units Sigma Reference Notes
absolute magnitude H 11.45   n/a E2021B10  
diameter diameter 24.628 km 0.154 urn:nasa:pds:neowise_diameters_albedos::2.0[mainbelt] (http://adsabs.harvard.edu/abs/2014ApJ...791..121M)  
rotation period rot_per 3.396 h n/a LCDB (Rev. 2020-October); Warner et al., 2009 Published Reference List:
[Waszczak, A.; Chang, C.-K.; Ofeck, E.O.; Laher, F.; et al. (2015) Astron. J. 150, A75.]
[Tan, H.; Gao, X. (2019) Minor Planet Bull. 46, 82-84.]
[Pal, A.; Szakats, R.; Kiss, C.; Bodi, A.; et al. (2019) Ap. J. Supl. Ser. 247, id.26.]
geometric albedo albedo 0.104   0.026 urn:nasa:pds:neowise_diameters_albedos::2.0[mainbelt] (http://adsabs.harvard.edu/abs/2014ApJ...791..121M)  

4730 Xingmingzhou           Discovered 1980 Dec. 7 at the Purple Mountain Observatory.
Xing-Ming Zhou (1965-2004), a meteorologist and comet hunter from Xinjiang province, detected 64 near-sun comets in SOHO's LASCO images and one in SOHO's SWAN images. He also independently discovered two other comets. A tireless and precise observer, he chronicled his observations on the Silk Road Astronomy website.
NOTE: some special characters may not display properly (any characters within {} are an attempt to place the proper accent above a character)
Reference: 20040928/MPCPages.arcLast Updated: 2004-09-28

[ show close-approach data ]
Alternate Designations
 1980 XZ = 1932 BE = 1983 GR2 = 1983 JJ1 
Ephemeris | Orbit Diagram | Orbital Elements | Mission Design | Physical Parameters | Discovery Circumstances | Close-Approach Data ]
ABOUT SSD CREDITS/AWARDS PRIVACY/COPYRIGHT GLOSSARY LINKS
FirstGov 2021-Apr-20 12:31 UT
(server date/time)  
NASA Home Page
Site Manager:   Ryan S. Park
Webmaster  Alan B. Chamberlin